Torna al catalogo

STARLINK-3620

AttivoComunicazioniVLEO
NORAD 51775·PAYLOAD·🇺🇸 United States

Lanciato Feb 25, 2022 da Vandenberg Space Force Base

Loading…

Prossimi Passaggi (prossime 24 ore)

TLE

AggiornatoSource: CelesTrak SupGP

Epoca: Sep 14, 2026, 21:37 UTC

1 51775C 22017H   26257.90118056  .00088262  00000+0  34882-3 0  2579
2 51775  53.2133 155.3507 0005205 115.1548 292.3051 15.86008357    13

Traccia STARLINK-3620 in tempo reale con AllMySat

Download on the App Store